Home   Weather   Luanda   Past weeks
Flag for Angola

Past Weather in Luanda, Angola — Yesterday and Last 2 Weeks

Now
81 °F

Passing clouds.


Feels Like: 86 °F
Forecast: 87 / 78 °F
Wind: 6 mph from Southwest

Location: Luanda Airport

Current Time: Jan 17, 2019 at 10:20:00 pm

Latest Report: Jan 17, 2019 at 9:00 pm


Visibility: N/A

Pressure: 29.86 "Hg

Humidity: 84%

Dew Point: 75 °F

Location of LuandaLocation

Past Weather in Luanda — Graph

°F

Luanda Temperature Yesterday

Maximum temperature yesterday: 86 °F (at 10:00 am)
Minimum temperature yesterday: 77 °F (at 2:00 am)
Average temperature yesterday: 81 °F

High & Low Weather Summary for the Past Weeks

 TemperatureHumidityPressure
High90 °F (Jan 9, 1:00 pm)100% (Jan 5, 4:00 am)29.95 "Hg (Jan 5, 4:00 am)
Low75 °F (Jan 5, 4:00 am)52% (Jan 9, 1:00 pm)29.74 "Hg (Jan 10, 6:00 pm)
Average81 °F78%29.87 "Hg
* Reported Jan 2 8:00 pm — Jan 17 8:00 pm, Luanda. Weather by CustomWeather, © 2019

Note: Actual official high and low records may vary slightly from our data, if they occured in-between our weather recording intervals... More about our weather records

Advertising

Luanda Weather History for the Previous 24 Hours

Scroll right to see more
 ConditionsComfort  
Time TempWeatherWind HumidityBarometerVisibility
8:00 pm
Thu, Jan 17
81 °FPassing clouds.7 mph84%29.86 "HgN/A
7:00 pm81 °FPassing clouds.9 mph84%29.80 "HgN/A
6:00 pm81 °FScattered clouds.13 mph84%29.77 "HgN/A
5:00 pm84 °FScattered clouds.12 mph74%29.77 "HgN/A
4:00 pm84 °FScattered clouds.14 mph74%29.80 "HgN/A
3:00 pm84 °FScattered clouds.13 mph74%29.80 "HgN/A
1:00 pm84 °FPartly sunny.12 mph70%29.86 "HgN/A
12:00 pm84 °FPartly sunny.9 mph66%29.89 "HgN/A
11:00 am88 °FScattered clouds.9 mph62%29.92 "Hg6 mi
10:00 am86 °FScattered clouds.7 mph66%29.92 "Hg6 mi
9:00 am86 °FPartly sunny.5 mph62%29.92 "Hg6 mi
8:00 am84 °FScattered clouds.5 mph70%29.92 "Hg5 mi
7:00 am79 °FPartly sunny.5 mph84%29.89 "HgN/A
6:00 am79 °FPartly sunny.2 mph84%29.89 "HgN/A
5:00 am79 °FPassing clouds.2 mph84%29.86 "HgN/A
4:00 am79 °FPassing clouds.2 mph79%29.86 "HgN/A
2:00 am81 °FPassing clouds.3 mph74%29.89 "HgN/A
1:00 am79 °FPassing clouds.3 mph79%29.89 "HgN/A
12:00 am79 °FPassing clouds.5 mph79%29.92 "HgN/A
11:00 pm
Wed, Jan 16
79 °FPassing clouds.5 mph79%29.92 "HgN/A
10:00 pm81 °FPassing clouds.5 mph74%29.89 "HgN/A
Weather by CustomWeather, © 2019

See weather overview